This is the latest recevied weather packets stored in our database for station/object CE3MXM-13. If no packets are shown the sender has not sent any weather packets the latest 1 day(s).
| Time | Temp. | Humidity | Pressure | Rain* | Wind** | Luminosity | Snow |
|---|---|---|---|---|---|---|---|
| 1777987802 | 15° C | 60% | 1009.4 hPa | - | 0 m/s | - | - |
| 1777987502 | 15° C | 60% | 1009.4 hPa | - | 0 m/s | - | - |
| 1777987201 | 15° C | 61% | 1009.2 hPa | - | 0 m/s | - | - |
| 1777986902 | 14.44° C | 63% | 1009.3 hPa | - | 0 m/s | - | - |
| 1777986601 | 14.44° C | 64% | 1009.6 hPa | - | 0 m/s | - | - |
| 1777986301 | 13.89° C | 67% | 1009.4 hPa | - | 0 m/s | - | - |
| 1777986001 | 13.89° C | 69% | 1009.5 hPa | - | 0 m/s | - | - |
| 1777985701 | 13.33° C | 69% | 1009.7 hPa | - | 0 m/s | - | - |
| 1777985401 | 13.33° C | 70% | 1009.6 hPa | - | 0 m/s | - | - |
| 1777985102 | 12.78° C | 73% | 1009.7 hPa | - | 0 m/s | - | - |
| 1777984801 | 12.22° C | 75% | 1010 hPa | - | 0 m/s | - | - |
| 1777984501 | 12.22° C | 76% | 1010 hPa | - | 0 m/s | - | - |
| 1777984201 | 11.67° C | 77% | 1010.1 hPa | - | 0 m/s | - | - |
| 1777983901 | 11.67° C | 78% | 1010.2 hPa | - | 0 m/s | - | - |
| 1777983600 | 11.67° C | 76% | 1010.3 hPa | - | 0 m/s | - | - |
| 1777983300 | 11.67° C | 78% | 1010.5 hPa | - | 0 m/s | - | - |
| 1777983000 | 11.11° C | 77% | 1010.5 hPa | - | 0 m/s | - | - |
| 1777982700 | 11.11° C | 76% | 1010.7 hPa | - | 0 m/s | - | - |
| 1777982400 | 11.11° C | 75% | 1010.9 hPa | - | 0 m/s | - | - |
| 1777982100 | 11.11° C | 76% | 1011.1 hPa | - | 0 m/s | - | - |
| 1777981800 | 11.11° C | 76% | 1010.9 hPa | - | 0 m/s | - | - |
| 1777981500 | 11.11° C | 76% | 1010.6 hPa | - | 0 m/s | - | - |
| 1777981199 | 11.11° C | 73% | 1010.7 hPa | - | 0 m/s | - | - |
| 1777980899 | 11.11° C | 74% | 1010.9 hPa | - | 0 m/s | - | - |
| 1777980599 | 10.56° C | 77% | 1010.9 hPa | - | 0 m/s | - | - |
* Rain since midnight (hover to see other rain measurements)
** Current wind speed in m/s (hover to see current wind gust speed)